This demonstration page uses our WeatherBlox Daily Observations layout. Learn more.

Left ArrowRight Arrow

41.55636, -103.73856

Hourly Observations for December 23, 2020

Temp ( °F °C ) Dew Point ( °F °C ) Humidity (%) Winds ( mph kmh ) Pressure ( in mb ) Visibility ( mi km ) Precip ( " mm )
12:56 am 00:56 Mostly Cloudy 23 -4.8 16 -9.1 72 72 NW 38 61 29.75 1007 10 16 0.00 0.00
1:56 am 01:56 Windy with Snow Showers Likely 24 -4.6 16 -8.8 73 73 NW 35 56 29.77 1008 10 16 0.00 0.00
2:56 am 02:56 Very Windy with Snow Showers Likely 22 -5.3 15 -9.5 73 73 NW 38 61 29.83 1010 5 8 0.00 0.00
3:56 am 03:56 Very Windy with Snow Showers Likely 22 -5.4 14 -10.2 69 69 NW 40 65 29.88 1012 10 16 0.00 0.00
4:56 am 04:56 Very Windy with Snow Likely 21 -5.9 14 -10.2 72 72 NW 48 78 29.92 1013 9 14 0.00 0.00
5:56 am 05:56 Mostly Cloudy with Light Snow 20 -6.7 10 -12.1 66 66 NNW 49 80 30.03 1017 5 8 0.00 0.00
6:56 am 06:56 Mostly Cloudy with Light Snow 19 -7.2 11 -11.5 72 72 NNW 43 69 30.11 1020 10 16 0.00 0.00
7:56 am 07:56 Windy with Snow Likely 19 -7.5 13 -10.5 79 79 NNW 37 59 30.16 1021 3 5 0.00 0.00
8:56 am 08:56 Very Windy with Snow Showers Likely 20 -6.9 12 -11 73 73 NNW 40 65 30.19 1022 9 14 0.00 0.00
9:56 am 09:56 Windy with Snow Showers Likely 21 -6.1 11 -11.6 65 65 NNW 35 56 30.24 1024 10 16 0.00 0.00
10:56 am 10:56 Windy with Snow Showers Likely 21 -6 9 -12.7 59 59 NNW 37 59 30.24 1024 10 16 0.00 0.00
11:56 am 11:56 Partly Cloudy 23 -4.8 6 -14.2 48 48 NNW 36 57 30.24 1024 10 16 0.00 0.00
12:56 pm 12:56 Sunny 24 -4.7 -2 -19.1 32 32 NNW 37 59 30.24 1024 10 16 0.00 0.00
1:56 pm 13:56 Sunny 24 -4.6 -4 -19.8 30 30 NNW 35 56 30.25 1024 10 16 0.00 0.00
2:56 pm 14:56 Sunny 24 -4.7 -2 -19 32 32 NW 29 46 30.28 1025 10 16 0.00 0.00
3:56 pm 15:56 Sunny 22 -5.3 -6 -20.9 28 28 NNW 22 35 30.30 1026 10 16 0.00 0.00
4:56 pm 16:56 Clear 20 -6.5 -6 -21 31 31 NNW 18 30 30.33 1027 10 16 0.00 0.00
5:56 pm 17:56 Clear 17 -8.5 -3 -19.4 41 41 NW 13 20 30.35 1028 10 16 0.00 0.00
6:56 pm 18:56 Mostly Cloudy 19 -7.5 1 -17.3 46 46 NW 12 19 30.35 1028 10 16 0.00 0.00
7:56 pm 19:56 Clear 13 -10.4 4 -15.8 65 65 W 12 19 30.36 1028 10 16 0.00 0.00
8:56 pm 20:56 Clear 12 -11.2 3 -16 68 68 W 9 15 30.35 1028 10 16 0.00 0.00
9:56 pm 21:56 Clear 11 -11.7 2 -16.4 68 68 W 8 13 30.35 1028 10 16 0.00 0.00
10:56 pm 22:56 Clear 11 -11.5 3 -16.3 68 68 W 8 13 30.32 1027 10 16 0.00 0.00
11:56 pm 23:56 Partly Cloudy 12 -11.3 4 -15.5 71 71 NW 14 22 30.29 1026 10 16 0.00 0.00

Powered by AerisWeather